Location: Alladorf
(49.9620°N, 11.3790°E)
Time: 19:43:27
(UTC+00:00)

Cosmos 2154 Rocket - Pass Details

Date: 29 November 2020
Orbit: 966 x 997 km, 82.9° (Epoch: 24 January)

Event Time Altitude Azimuth Distance (km) Brightness Sun altitude
Rises 05:08:31 0° 188° (S) 3,651 7.1 -15.5°
Reaches altitude 10° 05:11:00 10° 189° (S) 2,711 6.4 -15.1°
Maximum altitude 05:17:13 87° 278° (W) 987 4.0 -14.1°
Drops below altitude 10° 05:23:33 10° 9° (N) 2,751 6.3 -13.1°
Sets 05:26:06 0° 10° (N) 3,708 7.0 -12.8°
